Estación de Alto del Carmen

Ultimos registro cada 15 minutos 77
Estación Fecha / Hora Temperatura Humedad Lluvia Velocidad Dirección Radiación Presion
77 Alto del Carmen 02-05-2026 19:15 17,9 32 0 0 341 0 1011,1
76 Alto del Carmen 02-05-2026 19:00 19,7 27 0 0 341 0 1011
75 Alto del Carmen 02-05-2026 18:45 22,4 23 0 0 341 0 1010,9
74 Alto del Carmen 02-05-2026 18:30 24,2 19 0 0,4 341 0 1010,8
73 Alto del Carmen 02-05-2026 18:15 25,8 16 0 0,4 341 0 1010,6
72 Alto del Carmen 02-05-2026 18:00 26,4 15 0 0,9 340 5 1010,5
71 Alto del Carmen 02-05-2026 17:45 27,7 13 0 1,8 314 9 1010,3
70 Alto del Carmen 02-05-2026 17:30 29 11 0 1,8 306 14 1010,3
69 Alto del Carmen 02-05-2026 17:15 29,8 12 0 1,8 303 19 1010,3
68 Alto del Carmen 02-05-2026 17:00 30,8 9 0 3,1 299 185 1010,2
67 Alto del Carmen 02-05-2026 16:45 31,1 9 0 1,8 282 237 1010,3
66 Alto del Carmen 02-05-2026 16:30 31,4 10 0 0,9 300 287 1010,4
65 Alto del Carmen 02-05-2026 16:15 31,9 10 0 2,2 302 334 1010,4
64 Alto del Carmen 02-05-2026 16:00 32,1 8 0 3,6 315 380 1010,5
63 Alto del Carmen 02-05-2026 15:45 32,3 7 0 3,1 296 424 1010,6
62 Alto del Carmen 02-05-2026 15:30 32,7 6 0 4 311 438 1010,5
61 Alto del Carmen 02-05-2026 15:15 32,9 6 0 4,5 334 508 1010,5
60 Alto del Carmen 02-05-2026 15:00 32,8 6 0 4 324 545 1010,4
59 Alto del Carmen 02-05-2026 14:45 33,3 5 0 3,6 305 580 1010,3
58 Alto del Carmen 02-05-2026 14:30 33,3 3 0 4,9 329 610 1010,5
57 Alto del Carmen 02-05-2026 14:15 33,8 4 0 3,1 330 638 1010,7
56 Alto del Carmen 02-05-2026 14:00 33,7 4 0 2,7 302 661 1010,7
55 Alto del Carmen 02-05-2026 13:45 33,4 2 0 2,7 319 680 1010,8
54 Alto del Carmen 02-05-2026 13:30 33,6 3 0 3,1 346 698 1010,9
53 Alto del Carmen 02-05-2026 13:15 33,1 2 0 3,6 322 710 1011,2
52 Alto del Carmen 02-05-2026 13:00 32,7 2 0 3,1 316 717 1011,3
51 Alto del Carmen 02-05-2026 12:45 32,1 3 0 1,8 351 721 1011,6
50 Alto del Carmen 02-05-2026 12:30 31,6 4 0 0,9 337 717 1012
49 Alto del Carmen 02-05-2026 12:00 30,8 3 0 1,8 22 710 1012,4
48 Alto del Carmen 02-05-2026 11:45 30,4 3 0 1,3 38 698 1012,6
47 Alto del Carmen 02-05-2026 11:30 29,5 4 0 0,9 55 680 1012,9
46 Alto del Carmen 02-05-2026 11:15 28,5 4 0 0 56 661 1013,3
45 Alto del Carmen 02-05-2026 11:00 27 6 0 0,9 56 635 1013,3
44 Alto del Carmen 02-05-2026 10:45 25,6 8 0 0 56 610 1013,6
43 Alto del Carmen 02-05-2026 10:30 24 8 0 0,4 57 577 1013,8
42 Alto del Carmen 02-05-2026 10:15 20,6 13 0 0,4 57 541 1014
41 Alto del Carmen 02-05-2026 10:00 15,9 21 0 0 57 504 1014,4
40 Alto del Carmen 02-05-2026 09:45 9,7 44 0 0 57 462 1014
39 Alto del Carmen 02-05-2026 09:30 7,3 46 0 0,4 57 23 1014,1
38 Alto del Carmen 02-05-2026 09:15 7,1 51 0 0 57 21 1014
37 Alto del Carmen 02-05-2026 09:00 6,6 57 0 0,4 57 19 1013,8
36 Alto del Carmen 02-05-2026 08:45 6,4 53 0 0,4 57 19 1013,9
35 Alto del Carmen 02-05-2026 08:30 6,3 52 0 0,4 57 18 1013,9
34 Alto del Carmen 02-05-2026 08:15 5,8 57 0 0,9 55 16 1013,7
33 Alto del Carmen 02-05-2026 08:00 5,9 54 0 0 55 14 1013,5
32 Alto del Carmen 02-05-2026 07:45 6,1 51 0 0 55 11 1013,4
31 Alto del Carmen 02-05-2026 07:30 5,3 56 0 0,4 53 9 1013,3
30 Alto del Carmen 02-05-2026 07:15 5,3 54 0 0 54 5 1013,1
29 Alto del Carmen 02-05-2026 07:00 5,1 55 0 0,4 53 0 1013
28 Alto del Carmen 02-05-2026 06:45 5,2 57 0 0,4 53 0 1013
27 Alto del Carmen 02-05-2026 06:30 5,8 54 0 0,9 53 0 1012,8
26 Alto del Carmen 02-05-2026 06:15 6,2 53 0 0 53 0 1012,9
25 Alto del Carmen 02-05-2026 06:00 6,2 54 0 0 53 0 1012,8
24 Alto del Carmen 02-05-2026 05:45 5,8 53 0 0,4 53 0 1012,7
23 Alto del Carmen 02-05-2026 05:30 5,9 55 0 0,9 53 0 1012,8
22 Alto del Carmen 02-05-2026 05:15 6,5 54 0 0,4 51 0 1012,6
21 Alto del Carmen 02-05-2026 05:00 6,4 54 0 0 51 0 1012,5
20 Alto del Carmen 02-05-2026 04:45 6,4 54 0 0 51 0 1012,6
19 Alto del Carmen 02-05-2026 04:30 7,3 52 0 0,9 51 0 1012,5
18 Alto del Carmen 02-05-2026 04:15 7,1 51 0 0,9 51 0 1012,5
17 Alto del Carmen 02-05-2026 04:00 7,5 51 0 0 51 0 1012,7
16 Alto del Carmen 02-05-2026 03:45 6,9 53 0 0,4 51 0 1012,7
15 Alto del Carmen 02-05-2026 03:30 7,7 51 0 0 51 0 1012,7
14 Alto del Carmen 02-05-2026 03:15 7,7 52 0 0,4 50 0 1012,7
13 Alto del Carmen 02-05-2026 03:00 7,6 50 0 0,4 50 0 1012,7
12 Alto del Carmen 02-05-2026 02:45 7,8 50 0 0,4 50 0 1012,7
11 Alto del Carmen 02-05-2026 02:30 7,8 51 0 0,4 50 0 1012,7
10 Alto del Carmen 02-05-2026 02:15 7,9 52 0 0 48 0 1012,8
9 Alto del Carmen 02-05-2026 02:00 8,3 50 0 0,4 48 0 1013
8 Alto del Carmen 02-05-2026 01:45 7,5 53 0 0 47 0 1013,1
7 Alto del Carmen 02-05-2026 01:30 7,5 55 0 0,4 47 0 1013
6 Alto del Carmen 02-05-2026 01:15 7,7 55 0 0,4 47 0 1013
5 Alto del Carmen 02-05-2026 01:00 8,2 53 0 0,9 47 0 1013,4
4 Alto del Carmen 02-05-2026 00:45 8,4 53 0 0,9 47 0 1013,6
3 Alto del Carmen 02-05-2026 00:30 8,4 50 0 0 47 0 1013,6
2 Alto del Carmen 02-05-2026 00:15 8,4 54 0 0 43 0 1013,6
1 Alto del Carmen 02-05-2026 00:00 8,4 54 0 0,9 43 0 1013,6